Вернуться в каталог

STARLINK-3884

АктивенСвязьVLEO
NORAD 52497·PAYLOAD·🇺🇸 United States

Запущен May 6, 2022 с Cape Canaveral Space Force Station

Loading…

Ближайшие Пролёты (ближайшие 24 часа)

TLE

СвежийSource: CelesTrak SupGP

Эпоха: Sep 15, 2026, 01:55 UTC

1 52497C 22049AY  26258.08034722 -.00016294  00000+0 -49436-3 0  2583
2 52497  53.1583 269.3926 0001274  86.3824 247.0775 15.33561969    17

Отслеживайте STARLINK-3884 в реальном времени с AllMySat

Download on the App Store